[[{"header":{"parameterUnit":"m.s-1","parameterCategory":1,"la1":30.2991,"la2":30.254,"lo1":-89.0895,"lo2":-89.0444,"dy":0.0017,"dx":0.0017,"nx":28,"ny":28,"refTime":"2024-05-20T09:00:00:Z","depth":0,"parameterNumber":2,"parameterNumberName":"U-component_of_WINDS"},"data":[0,0,0,0,0,0,0,0,0,0,0,0,0,0,0,0,0,0,0,0,0,0,0,0,0,0,0,0,0,0,0,0,0,0,0,0,0,0,0,0,0,0,0,0,0,0,0,0,0,0,0,0,0,0,0,0,0,0,-3.0646,-3.0647,0,-3.0721,-3.0722,-3.0723,-3.0704,-3.0702,-3.0701,-3.0699,-3.0777,-3.078,-3.0783,0,0,0,0,0,0,0,0,0,0,0,0,0,-3.0487,-3.049,-3.0646,-3.0647,-3.0648,-3.0721,-3.0722,-3.0723,-3.0704,-3.0702,-3.07,-3.0699,-3.0775,-3.0779,-3.0784,0,0,0,0,0,0,0,0,0,0,0,0,0,-3.0558,-3.0491,-3.0646,-3.0647,-3.0648,-3.0721,-3.0722,-3.0723,-3.0704,-3.0702,-3.07,-3.0698,-3.0774,-3.0779,-3.0784,-3.086,0,0,-3.08,-3.0802,0,0,0,0,0,0,0,0,-3.0554,-3.0564,-3.0646,-3.0647,-3.0648,-3.0701,-3.0694,-3.0769,-3.0705,-3.0683,-3.0699,-3.0697,-3.0753,-3.076,-3.0779,-3.0864,-3.0867,-3.08,-3.0803,-3.0806,-3.0807,0,0,0,0,0,0,0,-3.0549,-3.0561,-3.0675,-3.0647,-3.0648,-3.0644,-3.0652,-3.0708,-3.073,-3.0685,-3.0684,-3.0693,-3.0753,-3.0774,-3.078,-3.0868,-3.08,-3.0805,-3.0808,-3.081,-3.1021,-3.1023,0,0,0,0,0,0,-3.0543,-3.0557,-3.0673,-3.0678,-3.0595,-3.0649,-3.0658,-3.0686,-3.0729,-3.0733,-3.0695,-3.0692,-3.0766,-3.0774,-3.0783,-3.0875,-3.0806,-3.081,-3.0813,-3.1018,-3.1021,-3.1024,0,0,0,0,0,0,-3.054,-3.0554,-3.067,-3.0617,-3.0632,-3.0654,-3.0686,-3.0689,-3.0709,-3.0736,-3.074,-3.0712,-3.0765,-3.0776,-3.0841,-3.0878,-3.0813,-3.0817,-3.1015,-3.1019,-3.1023,-3.106,0,0,0,0,0,0,-3.0536,-3.0553,-3.0581,-3.0618,-3.0634,-3.0727,-3.0688,-3.0692,-3.0718,-3.0715,-3.0753,-3.0757,-3.0764,-3.0834,-3.0847,-3.0884,-3.0821,-3.1012,-3.1017,-3.1022,-3.1056,-3.1065,-3.1073,0,0,0,0,0,-3.053,-3.0589,-3.0583,-3.0597,-3.0671,-3.0729,-3.0738,-3.0745,-3.0721,-3.075,-3.0768,-3.0756,-3.0872,-3.0841,-3.0855,-3.0894,-3.101,-3.1016,-3.1021,-3.1052,-3.1063,-3.1072,0,0,0,0,0,0,-3.0555,-3.0593,-3.0587,-3.066,-3.0691,-3.0725,-3.0762,-3.0756,-3.0795,-3.079,-3.0796,-3.0805,-3.0872,-3.089,-3.0854,-3.0971,-3.0938,-3.0946,-3.0956,-3.0967,-3.0975,-3.0969,-3.0826,0,0,0,0,0,-3.057,-3.0613,-3.0644,-3.0705,-3.0721,-3.0739,-3.0765,-3.0767,-3.08,-3.0813,-3.0836,-3.0868,-3.0912,-3.0941,-3.0983,-3.1059,-3.1067,-3.1093,-3.1101,-3.1108,-3.1115,-3.1158,-3.117,-3.1043,-3.1043,-3.1043,0,0,-3.0599,-3.0625,-3.0652,-3.0711,-3.0736,-3.0781,-3.0751,-3.08,-3.0834,-3.0821,-3.0884,-3.0902,-3.0939,-3.1011,-3.1043,-3.1027,-3.1153,-3.1115,-3.1121,-3.1124,-3.1165,-3.1177,-3.1188,-3.1047,-3.1046,-3.1045,0,0,-3.0675,-3.07,-3.0753,-3.0779,-3.0817,-3.0829,-3.0842,-3.0878,-3.089,-3.0954,-3.0945,-3.0986,-3.1061,-3.1088,-3.1112,-3.1202,-3.1192,-3.1215,-3.1258,-3.13,-3.131,-3.1319,-3.135,-3.1362,-3.1222,-3.1223,-3.1223,0,-3.0707,-3.0775,-3.0782,-3.0832,-3.0859,-3.085,-3.0905,-3.093,-3.0979,-3.0998,-3.098,-3.1075,-3.1099,-3.1178,-3.12,-3.1219,-3.1235,-3.121,-3.1308,-3.1317,-3.1325,-3.1356,-3.1368,-3.1225,-3.1225,-3.1224,-3.1224,0,-3.0812,-3.086,-3.0899,-3.0947,-3.0978,-3.1031,-3.1046,-3.1077,-3.1078,-3.1092,-3.1158,-3.1187,-3.1235,-3.1254,-3.1254,-3.1333,-3.1322,-3.1306,-3.1272,-3.134,-3.1368,-3.138,-3.1229,-3.1228,-3.1227,-3.1226,0,0,-3.0904,-3.0958,-3.0972,-3.0995,-3.1037,-3.1074,-3.1127,-3.1175,-3.1201,-3.1237,-3.1281,-3.1346,-3.1332,-3.1359,-3.1363,-3.14,-3.1469,-3.1379,-3.138,-3.1395,-3.1558,-3.1569,-3.1582,-3.1464,-3.1467,-3.1468,-3.1555,0,-3.0984,-3.1077,-3.1086,-3.1169,-3.1213,-3.1207,-3.1253,-3.1285,-3.13,-3.1341,-3.1358,-3.1404,-3.1382,-3.1398,-3.1434,-3.1453,-3.1502,-3.1447,-3.1506,-3.1508,-3.1495,-3.1597,-3.1609,-3.1689,-3.1566,-3.1568,-3.1569,0,-3.109,-3.1129,-3.1216,-3.1254,-3.1273,-3.1314,-3.1359,-3.1398,-3.1434,-3.1443,-3.1474,-3.1474,-3.1529,-3.1495,-3.1572,-3.1534,-3.1559,-3.1573,-3.1576,-3.1581,-3.1542,-3.1604,-3.1715,-3.1726,-3.1587,-3.1586,-3.1584,0,-3.1148,-3.1223,-3.1285,-3.1305,-3.135,-3.138,-3.14,-3.1434,-3.1463,-3.1502,-3.1521,-3.1567,-3.1591,-3.1627,-3.1639,-3.1614,-3.1716,-3.1683,-3.1725,-3.1724,-3.1745,-3.1743,-3.186,-3.1763,-3.1763,-3.1762,-3.1762,0,-3.1236,-3.129,-3.1312,-3.135,-3.1411,-3.1421,-3.1481,-3.15,-3.1531,-3.1574,-3.1571,-3.1611,-3.1625,-3.1668,-3.1678,-3.174,-3.1752,-3.1761,-3.1762,-3.176,-3.1759,-3.1776,-3.177,-3.1766,-3.1765,-3.1764,-3.1764,0,-3.1311,-3.1328,-3.1395,-3.1434,-3.1445,-3.1488,-3.1521,-3.1558,-3.1574,-3.1627,-3.1641,-3.1665,-3.1716,-3.1732,-3.1792,-3.1799,-3.1872,-3.1869,-3.1859,-3.1859,-3.19,-3.1896,-3.2031,-3.2049,-3.1941,-3.1942,-3.1943,0,-3.1365,-3.1407,-3.145,-3.1478,-3.15,-3.1545,-3.1575,-3.1587,-3.1618,-3.1663,-3.1695,-3.1745,-3.1786,-3.1866,-3.189,-3.1937,-3.1935,-3.1979,-3.1942,-3.1939,-3.1935,-3.1932,-3.1937,-3.1986,-3.1987,-3.1988,-3.1988,0,-3.146,-3.1467,-3.1509,-3.1555,-3.159,-3.1627,-3.1662,-3.1686,-3.1704,-3.1739,-3.179,-3.1821,-3.1884,-3.1934,-3.1982,-3.2003,-3.1999,-3.2,-3.2012,-3.201,-3.2002,-3.2007,-3.1878,-3.1997,-3.1996,-3.1995,-3.1995,-3.1994,-3.1526,-3.1563,-3.16,-3.1647,-3.1675,-3.1709,-3.1746,-3.1767,-3.181,-3.1862,-3.1867,-3.1923,-3.196,-3.2024,-3.2048,-3.2092,-3.208,-3.2097,-3.2101,-3.2105,-3.2109,-3.1997,-3.2101,-3.2101,-3.2101,-3.21,-3.21,0,-3.1621,-3.1645,-3.1688,-3.1738,-3.1776,-3.1769,-3.1809,-3.1841,-3.189,-3.1925,-3.1965,-3.2025,-3.2073,-3.2102,-3.2151,-3.2181,-3.218,-3.2193,-3.219,-3.2196,-3.2117,-3.2101,-3.2193,-3.2193,-3.2193,-3.2193,-3.2193,-3.2193,-3.1675,-3.1737,-3.1748,-3.1825,-3.1848,-3.1903,-3.1926,-3.1957,-3.1985,-3.2052,-3.2093,-3.2111,-3.2143,-3.2195,-3.224,-3.2247,-3.2265,-3.2279,-3.2285,-3.2211,-3.2201,-3.2192,-3.2177,-3.2283,-3.2283,-3.236,-3.236,-3.2361]},{"header":{"parameterUnit":"m.s-1","parameterCategory":1,"la1":30.2991,"la2":30.254,"lo1":-89.0895,"lo2":-89.0444,"dy":0.0017,"dx":0.0017,"nx":28,"ny":28,"refTime":"2024-05-20T09:00:00:Z","depth":0,"parameterNumber":3,"parameterNumberName":"V-component_of_WINDS"},"data":[0,0,0,0,0,0,0,0,0,0,0,0,0,0,0,0,0,0,0,0,0,0,0,0,0,0,0,0,0,0,0,0,0,0,0,0,0,0,0,0,0,0,0,0,0,0,0,0,0,0,0,0,0,0,0,0,0,0,2.3387,2.3388,0,2.348,2.3481,2.3482,2.3552,2.3552,2.3553,2.3554,2.3644,2.3646,2.3648,0,0,0,0,0,0,0,0,0,0,0,0,0,2.3269,2.3271,2.3387,2.3388,2.339,2.3479,2.3481,2.3482,2.3552,2.3552,2.3553,2.3554,2.3644,2.3646,2.3648,0,0,0,0,0,0,0,0,0,0,0,0,0,2.3336,2.3271,2.3387,2.3435,2.3441,2.3479,2.3481,2.3482,2.3551,2.3552,2.3553,2.3554,2.3643,2.3645,2.3648,2.3645,0,0,2.3656,2.3658,0,0,0,0,0,0,0,0,2.3332,2.3341,2.3427,2.3432,2.3438,2.3505,2.3472,2.3537,2.3551,2.3509,2.3554,2.3555,2.3597,2.3603,2.3618,2.3649,2.3653,2.3657,2.3658,2.3659,2.366,0,0,0,0,0,0,0,2.3328,2.3337,2.3424,2.3428,2.3435,2.3451,2.3462,2.3485,2.3546,2.3513,2.3518,2.3528,2.36,2.3616,2.3621,2.3655,2.3657,2.3659,2.3661,2.3662,2.3689,2.3688,0,0,0,0,0,0,2.3316,2.3333,2.3421,2.3427,2.3387,2.3453,2.3465,2.3483,2.3546,2.3557,2.3528,2.3531,2.3611,2.3618,2.3624,2.3627,2.3659,2.3662,2.3663,2.369,2.3689,2.3688,0,0,0,0,0,0,2.3313,2.3323,2.3417,2.3381,2.3394,2.3454,2.3473,2.3484,2.35,2.3557,2.3568,2.3532,2.3612,2.3621,2.364,2.3631,2.3663,2.3666,2.3691,2.369,2.3689,2.3629,0,0,0,0,0,0,2.3309,2.3322,2.3322,2.3381,2.3396,2.3432,2.3473,2.3485,2.3505,2.3511,2.3565,2.3575,2.3613,2.3636,2.3643,2.3635,2.3668,2.3692,2.3691,2.3689,2.3632,2.3626,2.3621,0,0,0,0,0,2.3305,2.33,2.3321,2.3332,2.3397,2.3431,2.344,2.3485,2.3504,2.3504,2.3541,2.3573,2.363,2.3637,2.3646,2.3638,2.3693,2.3691,2.3689,2.3635,2.3627,2.3621,0,0,0,0,0,0,2.3236,2.3309,2.3333,2.3347,2.3383,2.3443,2.3444,2.3475,2.3505,2.3509,2.3563,2.3575,2.3589,2.3616,2.3622,2.364,2.3666,2.3665,2.3622,2.3615,2.3609,2.3602,2.367,0,0,0,0,0,2.3223,2.3246,2.3307,2.3314,2.333,2.3384,2.34,2.3433,2.3471,2.3486,2.3525,2.356,2.3586,2.3602,2.3629,2.3637,2.365,2.3636,2.363,2.3625,2.3624,2.3631,2.3626,2.3682,2.3682,2.3682,0,0,2.3196,2.3238,2.3248,2.3301,2.3332,2.3354,2.3396,2.3417,2.3433,2.3489,2.351,2.354,2.3582,2.3596,2.3604,2.3619,2.3612,2.3622,2.3618,2.362,2.3628,2.3623,2.3618,2.368,2.3681,2.3681,0,0,2.3157,2.3191,2.3201,2.3232,2.328,2.3316,2.3318,2.3374,2.3396,2.3419,2.3462,2.3481,2.3525,2.3554,2.3575,2.3549,2.3579,2.3556,2.3525,2.3532,2.3527,2.3524,2.3515,2.3511,2.3555,2.3554,2.3554,0,2.3116,2.3151,2.3202,2.322,2.3242,2.3296,2.3306,2.3333,2.3386,2.34,2.3416,2.3474,2.3506,2.3528,2.3522,2.3536,2.3541,2.355,2.3524,2.3521,2.3518,2.3511,2.3507,2.3551,2.3552,2.3552,2.3552,0,2.31,2.3123,2.3125,2.3178,2.32,2.3214,2.3266,2.3282,2.3313,2.3347,2.337,2.3411,2.3448,2.3456,2.3485,2.3482,2.349,2.3514,2.3542,2.3509,2.3503,2.35,2.3547,2.3548,2.3549,2.355,0,0,2.3019,2.3101,2.3101,2.3126,2.3183,2.3202,2.3218,2.3256,2.327,2.3304,2.332,2.3357,2.338,2.3403,2.3436,2.3442,2.342,2.3466,2.3468,2.3456,2.342,2.3402,2.3398,2.344,2.344,2.344,2.3417,0,2.299,2.3025,2.3071,2.3089,2.3112,2.3164,2.3179,2.3215,2.3247,2.3271,2.3307,2.3332,2.3361,2.3375,2.3383,2.3421,2.3413,2.3423,2.3455,2.3455,2.3443,2.3394,2.3375,2.3351,2.3415,2.3414,2.3414,0,2.296,2.2994,2.3016,2.3073,2.3084,2.3096,2.3136,2.3157,2.32,2.3223,2.325,2.3286,2.3306,2.3331,2.3359,2.3365,2.3381,2.3401,2.3401,2.3406,2.3433,2.3398,2.3345,2.3341,2.3411,2.3411,2.3411,0,2.29,2.2952,2.2972,2.2991,2.3058,2.3065,2.3093,2.3137,2.3157,2.3191,2.3205,2.3239,2.3259,2.3285,2.3329,2.3343,2.3353,2.3381,2.3373,2.3372,2.3373,2.3372,2.3321,2.3382,2.3382,2.3382,2.3382,0,2.2863,2.2874,2.2946,2.2958,2.2972,2.3025,2.3038,2.307,2.3108,2.3128,2.3174,2.319,2.3248,2.3271,2.3306,2.3325,2.3333,2.3352,2.3362,2.3349,2.3346,2.336,2.3363,2.3381,2.3381,2.3382,2.3382,0,2.2798,2.2847,2.2873,2.2934,2.295,2.2957,2.301,2.3023,2.3059,2.3083,2.3091,2.3147,2.3177,2.3225,2.3268,2.3292,2.3304,2.3319,2.329,2.3296,2.3285,2.3286,2.3242,2.3239,2.33,2.33,2.3299,0,2.2771,2.2782,2.2845,2.2862,2.2889,2.2915,2.2936,2.2989,2.3009,2.3059,2.3067,2.3101,2.3131,2.3176,2.322,2.3254,2.327,2.3252,2.3275,2.3262,2.3271,2.327,2.3271,2.3247,2.3246,2.3245,2.3245,0,2.2719,2.2743,2.2773,2.2812,2.2836,2.2869,2.2904,2.2915,2.2975,2.2995,2.3028,2.3051,2.3097,2.313,2.317,2.3198,2.3231,2.3237,2.3237,2.3224,2.3207,2.3217,2.3276,2.3238,2.3238,2.3239,2.3239,2.324,2.2673,2.2685,2.2732,2.2764,2.2796,2.2828,2.2844,2.2883,2.2911,2.2953,2.2982,2.3013,2.3056,2.3114,2.314,2.3164,2.3179,2.3178,2.3178,2.3177,2.3173,2.3203,2.3171,2.3172,2.3172,2.3172,2.3172,0,2.2623,2.2657,2.2686,2.2734,2.2759,2.279,2.283,2.2849,2.2876,2.2914,2.2943,2.298,2.3013,2.306,2.3096,2.3107,2.3123,2.3115,2.3114,2.3121,2.3157,2.3154,2.3101,2.3101,2.3101,2.3101,2.3101,2.3101,2.2601,2.2623,2.2653,2.2691,2.2724,2.2756,2.2776,2.2806,2.2837,2.2877,2.2905,2.2936,2.2978,2.3017,2.3049,2.3062,2.3073,2.306,2.3078,2.3111,2.3118,2.3124,2.3121,2.3062,2.3062,2.3039,2.3039,2.3038]}]]